• En España
  • Lista de países
  • Para 7 días
  • Temperatura del agua
  • Mapa Satelital
  • El tiempo en el mapa
  • Informadores
  • user-avatar
    Iniciar sesión

    Tiempo cada hora Degtyarka

    Hoy, 24 Septiembre, Lunes

    Tiempo Temperatura Precipitaciones Viento Presión Humedad
    00:00 +7°C° 0 mm 4 mps 738 mmHg 87%
    01:00 +7°C° 0 mm 4 mps 738 mmHg 88%
    02:00 +7°C° 0 mm 3 mps 738 mmHg 90%
    03:00 +7°C° 0 mm 3 mps 738 mmHg 92%
    04:00 +7°C° 0 mm 3 mps 738 mmHg 92%
    05:00 +7°C° 0 mm 3 mps 738 mmHg 91%
    06:00 +7°C° 0 mm 3 mps 738 mmHg 91%
    07:00 +8°C° 0 mm 3 mps 738 mmHg 86%
    08:00 +8°C° 0 mm 4 mps 738 mmHg 81%
    09:00 +10°C° 0 mm 4 mps 738 mmHg 76%
    10:00 +10°C° 0 mm 5 mps 737 mmHg 73%
    11:00 +10°C° 0 mm 6 mps 737 mmHg 70%
    12:00 +11°C° 0 mm 7 mps 736 mmHg 66%
    13:00 +11°C° 0.3 mm 7 mps 735 mmHg 68%
    14:00 +10°C° 0.3 mm 7 mps 735 mmHg 71%
    15:00 +10°C° 0.3 mm 8 mps 734 mmHg 73%
    16:00 +10°C° 1.3 mm 8 mps 733 mmHg 77%
    17:00 +8°C° 1.3 mm 9 mps 732 mmHg 80%
    18:00 +8°C° 1.3 mm 9 mps 731 mmHg 84%
    19:00 +10°C° 1.1 mm 9 mps 731 mmHg 85%
    20:00 +10°C° 1.1 mm 9 mps 730 mmHg 87%
    21:00 +10°C° 1.1 mm 9 mps 729 mmHg 88%
    22:00 +10°C° 0.2 mm 8 mps 729 mmHg 87%
    23:00 +9°C° 0.2 mm 8 mps 729 mmHg 86%

    Mañana, 25 Septiembre, Martes

    Tiempo Temperatura Precipitaciones Viento Presión Humedad
    00:00 +9°C° 0.2 mm 7 mps 729 mmHg 86%
    01:00 +8°C° 0 mm 7 mps 729 mmHg 86%
    02:00 +8°C° 0 mm 7 mps 729 mmHg 85%
    03:00 +7°C° 0 mm 6 mps 729 mmHg 85%
    04:00 +7°C° 0 mm 6 mps 729 mmHg 85%
    05:00 +6°C° 0 mm 7 mps 730 mmHg 85%
    06:00 +6°C° 0 mm 7 mps 730 mmHg 84%
    07:00 +6°C° 0 mm 7 mps 730 mmHg 83%
    08:00 +6°C° 0 mm 7 mps 731 mmHg 83%
    09:00 +6°C° 0 mm 7 mps 731 mmHg 82%
    10:00 +6°C° 0.1 mm 7 mps 732 mmHg 81%
    11:00 +6°C° 0.1 mm 7 mps 732 mmHg 81%
    12:00 +8°C° 0.1 mm 7 mps 733 mmHg 80%
    13:00 +6°C° 0.2 mm 7 mps 733 mmHg 80%
    14:00 +6°C° 0.2 mm 7 mps 734 mmHg 80%
    15:00 +6°C° 0.2 mm 7 mps 734 mmHg 80%
    16:00 +6°C° 0.1 mm 7 mps 735 mmHg 79%
    17:00 +5°C° 0.1 mm 7 mps 735 mmHg 79%
    18:00 +5°C° 0.1 mm 7 mps 736 mmHg 79%
    19:00 +5°C° 0 mm 6 mps 737 mmHg 80%
    20:00 +5°C° 0 mm 6 mps 737 mmHg 80%
    21:00 +4°C° 0 mm 6 mps 738 mmHg 81%
    22:00 +4°C° 0 mm 6 mps 739 mmHg 81%
    23:00 +5°C° 0 mm 5 mps 739 mmHg 81%

    Pasado mañana, 26 Septiembre, Miércoles

    Tiempo Temperatura Precipitaciones Viento Presión Humedad
    00:00 +3°C° 0 mm 5 mps 740 mmHg 81%
    01:00 +3°C° 0 mm 5 mps 740 mmHg 81%
    02:00 +3°C° 0 mm 5 mps 741 mmHg 82%
    03:00 +2°C° 0 mm 5 mps 741 mmHg 83%
    04:00 +2°C° 0 mm 5 mps 742 mmHg 85%
    05:00 +1°C° 0 mm 5 mps 743 mmHg 86%
    06:00 +1°C° 0 mm 5 mps 743 mmHg 87%
    07:00 +2°C° 0 mm 5 mps 744 mmHg 84%
    08:00 +2°C° 0 mm 5 mps 745 mmHg 80%
    09:00 +3°C° 0 mm 5 mps 745 mmHg 77%
    10:00 +5°C° 0 mm 5 mps 746 mmHg 69%
    11:00 +6°C° 0 mm 5 mps 746 mmHg 62%
    12:00 +7°C° 0 mm 5 mps 747 mmHg 55%
    13:00 +7°C° 0 mm 5 mps 747 mmHg 52%
    14:00 +8°C° 0 mm 5 mps 747 mmHg 50%
    15:00 +8°C° 0 mm 5 mps 747 mmHg 48%
    16:00 +7°C° 0 mm 4 mps 747 mmHg 52%
    17:00 +7°C° 0 mm 3 mps 747 mmHg 56%
    18:00 +7°C° 0 mm 3 mps 746 mmHg 60%
    19:00 +5°C° 0 mm 3 mps 746 mmHg 61%
    20:00 +4°C° 0 mm 3 mps 746 mmHg 62%
    21:00 +3°C° 0 mm 3 mps 746 mmHg 63%
    22:00 +4°C° 0 mm 4 mps 746 mmHg 64%
    23:00 +3°C° 0 mm 5 mps 745 mmHg 65%

    27 Septiembre, Jueves

    Tiempo Temperatura Precipitaciones Viento Presión Humedad
    00:00 +3°C° 0 mm 5 mps 745 mmHg 66%
    01:00 +3°C° 0 mm 6 mps 744 mmHg 67%
    02:00 +3°C° 0 mm 6 mps 743 mmHg 67%
    03:00 +4°C° 0 mm 7 mps 743 mmHg 68%
    04:00 +4°C° 0.3 mm 7 mps 742 mmHg 69%
    05:00 +2°C° 0.3 mm 8 mps 741 mmHg 71%
    06:00 +2°C° 0.3 mm 9 mps 740 mmHg 72%
    07:00 +3°C° 0.9 mm 9 mps 740 mmHg 75%
    08:00 +3°C° 0.9 mm 9 mps 739 mmHg 77%
    09:00 +3°C° 0.9 mm 10 mps 738 mmHg 80%
    10:00 +3°C° 0.4 mm 9 mps 738 mmHg 81%
    11:00 +5°C° 0.4 mm 9 mps 738 mmHg 82%
    12:00 +5°C° 0.4 mm 9 mps 738 mmHg 83%
    13:00 +5°C° 0.1 mm 8 mps 738 mmHg 83%
    14:00 +6°C° 0.1 mm 8 mps 738 mmHg 84%
    15:00 +6°C° 0.1 mm 7 mps 738 mmHg 84%
    16:00 +6°C° 0.1 mm 7 mps 738 mmHg 85%
    17:00 +7°C° 0.1 mm 6 mps 738 mmHg 87%
    18:00 +7°C° 0.1 mm 6 mps 738 mmHg 88%
    19:00 +7°C° 0.1 mm 6 mps 738 mmHg 89%
    20:00 +7°C° 0.1 mm 5 mps 738 mmHg 90%
    21:00 +7°C° 0.1 mm 5 mps 738 mmHg 91%
    22:00 +7°C° 0 mm 5 mps 738 mmHg 92%
    23:00 +7°C° 0 mm 5 mps 737 mmHg 92%

    28 Septiembre, Viernes

    Tiempo Temperatura Precipitaciones Viento Presión Humedad
    00:00 +8°C° 0 mm 5 mps 737 mmHg 92%
    01:00 +8°C° 0.2 mm 6 mps 737 mmHg 92%
    02:00 +8°C° 0.2 mm 6 mps 736 mmHg 93%
    03:00 +9°C° 0.2 mm 7 mps 736 mmHg 93%
    04:00 +9°C° 0.1 mm 7 mps 735 mmHg 92%
    05:00 +10°C° 0.1 mm 8 mps 735 mmHg 91%
    06:00 +11°C° 0.1 mm 8 mps 735 mmHg 90%
    07:00 +11°C° 0 mm 9 mps 734 mmHg 88%
    08:00 +11°C° 0 mm 9 mps 734 mmHg 86%
    09:00 +11°C° 0 mm 9 mps 734 mmHg 85%
    10:00 +11°C° 0.1 mm 9 mps 733 mmHg 84%
    11:00 +12°C° 0.1 mm 9 mps 733 mmHg 84%
    12:00 +12°C° 0.1 mm 9 mps 733 mmHg 84%
    13:00 +12°C° 0.3 mm 9 mps 734 mmHg 84%
    14:00 +12°C° 0.3 mm 9 mps 734 mmHg 84%
    15:00 +12°C° 0.3 mm 8 mps 734 mmHg 84%
    16:00 +11°C° 0.1 mm 7 mps 735 mmHg 83%
    17:00 +10°C° 0.1 mm 6 mps 736 mmHg 81%
    18:00 +10°C° 0.1 mm 4 mps 736 mmHg 80%
    19:00 +8°C° 0 mm 4 mps 737 mmHg 83%
    20:00 +8°C° 0 mm 3 mps 738 mmHg 86%
    21:00 +8°C° 0 mm 3 mps 739 mmHg 89%
    22:00 +7°C° 0 mm 3 mps 739 mmHg 90%
    23:00 +7°C° 0 mm 3 mps 739 mmHg 91%

    29 Septiembre, Sábado

    Tiempo Temperatura Precipitaciones Viento Presión Humedad
    00:00 +5°C° 0 mm 3 mps 740 mmHg 92%
    01:00 +5°C° 0 mm 3 mps 740 mmHg 92%
    02:00 +5°C° 0 mm 3 mps 741 mmHg 93%
    03:00 +5°C° 0 mm 2 mps 741 mmHg 93%
    04:00 +5°C° 0 mm 2 mps 741 mmHg 93%
    05:00 +5°C° 0 mm 2 mps 742 mmHg 93%
    06:00 +4°C° 0 mm 2 mps 742 mmHg 93%
    07:00 +5°C° 0 mm 2 mps 742 mmHg 89%
    08:00 +6°C° 0 mm 2 mps 743 mmHg 84%
    09:00 +7°C° 0 mm 2 mps 743 mmHg 80%
    10:00 +8°C° 0 mm 2 mps 743 mmHg 72%
    11:00 +9°C° 0 mm 3 mps 744 mmHg 64%
    12:00 +10°C° 0 mm 3 mps 744 mmHg 56%
    13:00 +10°C° 0 mm 3 mps 744 mmHg 53%
    14:00 +10°C° 0 mm 3 mps 744 mmHg 51%
    15:00 +10°C° 0 mm 3 mps 744 mmHg 48%
    16:00 +10°C° 0 mm 2 mps 744 mmHg 52%
    17:00 +9°C° 0 mm 2 mps 744 mmHg 56%
    18:00 +8°C° 0 mm 2 mps 745 mmHg 60%
    19:00 +7°C° 0 mm 2 mps 745 mmHg 61%
    20:00 +7°C° 0 mm 2 mps 746 mmHg 63%
    21:00 +6°C° 0 mm 2 mps 746 mmHg 65%
    22:00 +6°C° 0 mm 2 mps 747 mmHg 67%
    23:00 +5°C° 0 mm 2 mps 747 mmHg 69%
    Mostrar más